[[{"header":{"parameterUnit":"m.s-1","parameterCategory":1,"la1":30.2991,"la2":30.254,"lo1":-89.0895,"lo2":-89.0444,"dy":0.0017,"dx":0.0017,"nx":28,"ny":28,"refTime":"2025-02-27T09:00:00:Z","depth":0,"parameterNumber":2,"parameterNumberName":"U-component_of_WINDS"},"data":[0,0,0,0,0,0,0,0,0,0,0,0,0,0,0,0,0,0,0,0,0,0,0,0,0,0,0,0,0,0,0,0,0,0,0,0,0,0,0,0,0,0,0,0,0,0,0,0,0,0,0,0,0,0,0,0,0,0,-0.3849,-0.3849,0,-0.3867,-0.3868,-0.3868,-0.3851,-0.3851,-0.385,-0.3849,-0.387,-0.3871,-0.3872,0,0,0,0,0,0,0,0,0,0,0,0,0,-0.3802,-0.3803,-0.3849,-0.3849,-0.385,-0.3867,-0.3868,-0.3868,-0.3851,-0.3851,-0.385,-0.3849,-0.387,-0.3871,-0.3872,0,0,0,0,0,0,0,0,0,0,0,0,0,-0.3822,-0.3803,-0.3849,-0.3843,-0.3843,-0.3867,-0.3868,-0.3868,-0.3852,-0.385,-0.3849,-0.3849,-0.3869,-0.3871,-0.3873,-0.3904,0,0,-0.3878,-0.3879,0,0,0,0,0,0,0,0,-0.3821,-0.3823,-0.3844,-0.3844,-0.3844,-0.3856,-0.3859,-0.388,-0.3852,-0.3848,-0.3849,-0.3848,-0.3866,-0.3868,-0.3874,-0.3905,-0.3906,-0.3878,-0.3879,-0.388,-0.3881,0,0,0,0,0,0,0,-0.3819,-0.3822,-0.3856,-0.3844,-0.3844,-0.3841,-0.3842,-0.3863,-0.3863,-0.3849,-0.3847,-0.385,-0.3866,-0.3872,-0.3874,-0.3906,-0.3878,-0.388,-0.3881,-0.3882,-0.3964,-0.3965,0,0,0,0,0,0,-0.3818,-0.3821,-0.3856,-0.3857,-0.3829,-0.3842,-0.3844,-0.3853,-0.3863,-0.3863,-0.3851,-0.3849,-0.387,-0.3872,-0.3875,-0.3913,-0.388,-0.3882,-0.3883,-0.3963,-0.3964,-0.3966,0,0,0,0,0,0,-0.3817,-0.3821,-0.3855,-0.3839,-0.3843,-0.3844,-0.3854,-0.3854,-0.386,-0.3864,-0.3864,-0.3857,-0.3869,-0.3873,-0.3897,-0.3913,-0.3883,-0.3884,-0.3962,-0.3963,-0.3965,-0.3988,0,0,0,0,0,0,-0.3816,-0.3821,-0.3833,-0.3839,-0.3844,-0.3876,-0.3855,-0.3855,-0.3863,-0.3861,-0.387,-0.3871,-0.3869,-0.3894,-0.3899,-0.3915,-0.3886,-0.396,-0.3962,-0.3964,-0.3986,-0.3991,-0.3995,0,0,0,0,0,-0.3814,-0.3839,-0.3833,-0.3837,-0.3858,-0.3877,-0.388,-0.3876,-0.3864,-0.3876,-0.3879,-0.387,-0.391,-0.3897,-0.3902,-0.3919,-0.3959,-0.3962,-0.3964,-0.3984,-0.399,-0.3994,0,0,0,0,0,0,-0.3835,-0.384,-0.3834,-0.3861,-0.3869,-0.3874,-0.3889,-0.3882,-0.3894,-0.3892,-0.3888,-0.389,-0.3916,-0.392,-0.3904,-0.395,-0.3933,-0.3937,-0.3947,-0.3952,-0.3956,-0.3955,-0.3887,0,0,0,0,0,-0.3842,-0.3857,-0.386,-0.3884,-0.3888,-0.3888,-0.3896,-0.3893,-0.3901,-0.3904,-0.3909,-0.3918,-0.3932,-0.3942,-0.3956,-0.3986,-0.3988,-0.4001,-0.4005,-0.4008,-0.4012,-0.4029,-0.4034,-0.3974,-0.3974,-0.3974,0,0,-0.3859,-0.3863,-0.3872,-0.3888,-0.3894,-0.391,-0.3891,-0.3908,-0.392,-0.3907,-0.3931,-0.3934,-0.3944,-0.3971,-0.3984,-0.3975,-0.4029,-0.4011,-0.4014,-0.4016,-0.4032,-0.4038,-0.4043,-0.3976,-0.3975,-0.3975,0,0,-0.3896,-0.3901,-0.3921,-0.3927,-0.3935,-0.3935,-0.394,-0.3947,-0.3948,-0.3971,-0.3962,-0.3976,-0.4001,-0.4009,-0.4016,-0.4056,-0.4049,-0.406,-0.4083,-0.4099,-0.4104,-0.4108,-0.4123,-0.4129,-0.4063,-0.4064,-0.4064,0,-0.3916,-0.3938,-0.3933,-0.3951,-0.3959,-0.3946,-0.3968,-0.3974,-0.3987,-0.3993,-0.3983,-0.4014,-0.402,-0.4049,-0.4059,-0.4065,-0.4071,-0.406,-0.4104,-0.4108,-0.4112,-0.4126,-0.4132,-0.4065,-0.4065,-0.4065,-0.4064,0,-0.3962,-0.3978,-0.3994,-0.4006,-0.4015,-0.4035,-0.4033,-0.4043,-0.4038,-0.4039,-0.4063,-0.4069,-0.4084,-0.409,-0.4086,-0.412,-0.4114,-0.4104,-0.4087,-0.4119,-0.4133,-0.4138,-0.4067,-0.4066,-0.4066,-0.4066,0,0,-0.4015,-0.4023,-0.4029,-0.4034,-0.4042,-0.4055,-0.4074,-0.4088,-0.4097,-0.4106,-0.4123,-0.4144,-0.4134,-0.4142,-0.4139,-0.4153,-0.4186,-0.4142,-0.4142,-0.415,-0.4223,-0.4232,-0.4238,-0.418,-0.4181,-0.4182,-0.4223,0,-0.4053,-0.4086,-0.4081,-0.4113,-0.4128,-0.4117,-0.4133,-0.4141,-0.4142,-0.4155,-0.4156,-0.4172,-0.4158,-0.4163,-0.4176,-0.4179,-0.4201,-0.4176,-0.4197,-0.4198,-0.4196,-0.4245,-0.4254,-0.4293,-0.4228,-0.4229,-0.423,0,-0.4103,-0.4113,-0.4147,-0.4153,-0.4159,-0.4174,-0.4186,-0.4199,-0.4207,-0.4207,-0.4215,-0.4209,-0.4229,-0.4211,-0.4238,-0.4222,-0.423,-0.4232,-0.4234,-0.4237,-0.4217,-0.4251,-0.4305,-0.4311,-0.4238,-0.4237,-0.4237,0,-0.4139,-0.4161,-0.4184,-0.4189,-0.4196,-0.4207,-0.4211,-0.4218,-0.4227,-0.4237,-0.4243,-0.4256,-0.4264,-0.4275,-0.4273,-0.4259,-0.4301,-0.4282,-0.4303,-0.4303,-0.4313,-0.4313,-0.437,-0.4316,-0.4316,-0.4316,-0.4316,0,-0.4184,-0.4205,-0.4201,-0.4215,-0.4238,-0.4233,-0.4256,-0.4258,-0.4265,-0.4279,-0.427,-0.4284,-0.428,-0.4295,-0.4293,-0.4317,-0.432,-0.4321,-0.4321,-0.4323,-0.4323,-0.4329,-0.4327,-0.4318,-0.4317,-0.4317,-0.4317,0,-0.4229,-0.4227,-0.4251,-0.4256,-0.4257,-0.4274,-0.4279,-0.4292,-0.4292,-0.4311,-0.4315,-0.4316,-0.4332,-0.433,-0.4349,-0.4348,-0.4378,-0.4373,-0.4375,-0.4374,-0.4395,-0.4393,-0.446,-0.4469,-0.4408,-0.4408,-0.4409,0,-0.4258,-0.4274,-0.428,-0.4289,-0.4293,-0.4308,-0.4317,-0.4312,-0.4321,-0.4331,-0.4344,-0.4359,-0.4371,-0.4398,-0.44,-0.4414,-0.4411,-0.4433,-0.4413,-0.4415,-0.4413,-0.4413,-0.4415,-0.4438,-0.4438,-0.4439,-0.4439,0,-0.4311,-0.4309,-0.4321,-0.4333,-0.4344,-0.4353,-0.4362,-0.437,-0.4366,-0.4377,-0.4393,-0.4402,-0.4421,-0.4436,-0.445,-0.4454,-0.4447,-0.4445,-0.4451,-0.4454,-0.4455,-0.4456,-0.4387,-0.4444,-0.4444,-0.4444,-0.4443,-0.4443,-0.435,-0.4363,-0.437,-0.4384,-0.439,-0.4398,-0.4411,-0.4412,-0.4425,-0.444,-0.4436,-0.4455,-0.4462,-0.4479,-0.4485,-0.45,-0.4492,-0.45,-0.4502,-0.4504,-0.4507,-0.4451,-0.4502,-0.4502,-0.4502,-0.4501,-0.4501,0,-0.4403,-0.4406,-0.4419,-0.4431,-0.4442,-0.4433,-0.4442,-0.4452,-0.4469,-0.4476,-0.4488,-0.4507,-0.4522,-0.4525,-0.4539,-0.455,-0.4547,-0.4554,-0.4554,-0.4556,-0.4513,-0.4507,-0.4557,-0.4557,-0.4557,-0.4557,-0.4557,-0.4557,-0.4432,-0.4455,-0.4454,-0.4479,-0.4483,-0.45,-0.4506,-0.4514,-0.452,-0.4541,-0.4553,-0.4555,-0.4561,-0.4575,-0.4589,-0.4589,-0.4596,-0.4604,-0.4604,-0.4564,-0.4559,-0.4553,-0.4548,-0.4605,-0.4606,-0.4646,-0.4646,-0.4646]},{"header":{"parameterUnit":"m.s-1","parameterCategory":1,"la1":30.2991,"la2":30.254,"lo1":-89.0895,"lo2":-89.0444,"dy":0.0017,"dx":0.0017,"nx":28,"ny":28,"refTime":"2025-02-27T09:00:00:Z","depth":0,"parameterNumber":3,"parameterNumberName":"V-component_of_WINDS"},"data":[0,0,0,0,0,0,0,0,0,0,0,0,0,0,0,0,0,0,0,0,0,0,0,0,0,0,0,0,0,0,0,0,0,0,0,0,0,0,0,0,0,0,0,0,0,0,0,0,0,0,0,0,0,0,0,0,0,0,-4.1978,-4.1979,0,-4.2024,-4.2025,-4.2025,-4.1962,-4.1959,-4.1957,-4.1955,-4.2,-4.2004,-4.2007,0,0,0,0,0,0,0,0,0,0,0,0,0,-4.1835,-4.1838,-4.1978,-4.1979,-4.198,-4.2024,-4.2025,-4.2026,-4.1962,-4.1959,-4.1956,-4.1954,-4.1999,-4.2003,-4.2007,0,0,0,0,0,0,0,0,0,0,0,0,0,-4.1891,-4.1839,-4.1978,-4.1953,-4.1951,-4.2024,-4.2025,-4.2026,-4.1963,-4.1959,-4.1956,-4.1953,-4.1998,-4.2003,-4.2008,-4.2107,0,0,-4.2023,-4.2025,0,0,0,0,0,0,0,0,-4.1887,-4.1896,-4.1956,-4.1955,-4.1953,-4.1984,-4.1991,-4.2053,-4.1963,-4.1958,-4.1955,-4.1951,-4.1998,-4.2002,-4.2018,-4.2109,-4.2111,-4.2024,-4.2027,-4.2029,-4.203,0,0,0,0,0,0,0,-4.1884,-4.1894,-4.1996,-4.1957,-4.1955,-4.1939,-4.1944,-4.2002,-4.1996,-4.1959,-4.1954,-4.196,-4.1996,-4.2014,-4.2019,-4.2112,-4.2023,-4.2028,-4.2031,-4.2033,-4.2287,-4.229,0,0,0,0,0,0,-4.1883,-4.1891,-4.1995,-4.1998,-4.1911,-4.1945,-4.1949,-4.1977,-4.1996,-4.1995,-4.1963,-4.1957,-4.2007,-4.2013,-4.202,-4.2139,-4.2029,-4.2033,-4.2036,-4.2283,-4.2287,-4.2291,0,0,0,0,0,0,-4.188,-4.1893,-4.1993,-4.1943,-4.1955,-4.1951,-4.1983,-4.198,-4.1998,-4.1999,-4.1998,-4.1983,-4.2004,-4.2013,-4.2086,-4.2139,-4.2036,-4.204,-4.2279,-4.2284,-4.2289,-4.2375,0,0,0,0,0,0,-4.1876,-4.1892,-4.193,-4.1945,-4.1958,-4.2059,-4.1986,-4.1983,-4.2007,-4.1999,-4.2017,-4.2017,-4.2003,-4.2079,-4.2091,-4.2144,-4.2044,-4.2274,-4.2281,-4.2288,-4.2368,-4.2383,-4.2396,0,0,0,0,0,-4.1871,-4.1952,-4.1932,-4.1945,-4.2005,-4.2062,-4.2069,-4.2052,-4.2011,-4.2049,-4.205,-4.2016,-4.2131,-4.2087,-4.21,-4.2155,-4.227,-4.2279,-4.2287,-4.2361,-4.238,-4.2396,0,0,0,0,0,0,-4.1943,-4.1953,-4.1932,-4.2019,-4.204,-4.2051,-4.2098,-4.2072,-4.2105,-4.2097,-4.2073,-4.2078,-4.2156,-4.2163,-4.2113,-4.2253,-4.2194,-4.2205,-4.2246,-4.2264,-4.2278,-4.2275,-4.2048,0,0,0,0,0,-4.1969,-4.2015,-4.2021,-4.2097,-4.2109,-4.2102,-4.2126,-4.2111,-4.2132,-4.2141,-4.2147,-4.2168,-4.2209,-4.2236,-4.2274,-4.2368,-4.2371,-4.2412,-4.2427,-4.2438,-4.2449,-4.25,-4.2519,-4.2319,-4.2319,-4.2319,0,0,-4.2023,-4.2034,-4.2064,-4.2112,-4.2127,-4.2175,-4.211,-4.2163,-4.2199,-4.2148,-4.2218,-4.2224,-4.2245,-4.233,-4.2367,-4.2338,-4.2505,-4.2449,-4.2459,-4.2463,-4.2511,-4.253,-4.2547,-4.2325,-4.2324,-4.2323,0,0,-4.2146,-4.2159,-4.2225,-4.2241,-4.2264,-4.2259,-4.2275,-4.229,-4.2292,-4.2362,-4.2326,-4.2367,-4.2438,-4.2455,-4.2474,-4.2605,-4.2575,-4.2618,-4.2693,-4.2743,-4.2759,-4.2773,-4.2821,-4.2838,-4.2628,-4.2628,-4.2628,0,-4.221,-4.2282,-4.2262,-4.2318,-4.2341,-4.2298,-4.2365,-4.2381,-4.2415,-4.2432,-4.2398,-4.2487,-4.2499,-4.2587,-4.262,-4.2635,-4.2653,-4.2616,-4.2758,-4.2772,-4.2784,-4.283,-4.2848,-4.2633,-4.2632,-4.2632,-4.2631,0,-4.236,-4.241,-4.246,-4.2496,-4.2524,-4.2585,-4.2575,-4.2605,-4.2588,-4.2586,-4.2658,-4.2671,-4.2711,-4.273,-4.2713,-4.2817,-4.2798,-4.2762,-4.2703,-4.2809,-4.2851,-4.2869,-4.264,-4.2639,-4.2637,-4.2636,0,0,-4.253,-4.2554,-4.2573,-4.2589,-4.2612,-4.265,-4.271,-4.275,-4.2777,-4.2802,-4.2852,-4.2913,-4.288,-4.2901,-4.2886,-4.293,-4.3034,-4.2888,-4.2888,-4.2916,-4.315,-4.3179,-4.3199,-4.3014,-4.3017,-4.302,-4.3149,0,-4.2654,-4.2758,-4.2742,-4.2842,-4.2889,-4.2849,-4.2901,-4.2921,-4.2921,-4.296,-4.296,-4.3005,-4.2957,-4.297,-4.3011,-4.3013,-4.3081,-4.3003,-4.3061,-4.3063,-4.3058,-4.3221,-4.3251,-4.3372,-4.3165,-4.3168,-4.317,0,-4.2813,-4.2845,-4.2951,-4.2967,-4.2986,-4.3033,-4.307,-4.3107,-4.3129,-4.3126,-4.315,-4.3127,-4.3186,-4.3126,-4.3208,-4.3155,-4.3177,-4.3182,-4.3186,-4.3192,-4.3124,-4.3232,-4.341,-4.3429,-4.3196,-4.3194,-4.3192,0,-4.2928,-4.2997,-4.307,-4.3085,-4.3106,-4.314,-4.315,-4.3168,-4.3194,-4.3225,-4.3242,-4.3279,-4.33,-4.3329,-4.3317,-4.3273,-4.3402,-4.3339,-4.3401,-4.3402,-4.3431,-4.343,-4.3616,-4.3444,-4.3443,-4.3443,-4.3443,0,-4.3069,-4.3135,-4.3122,-4.3167,-4.324,-4.3221,-4.3294,-4.3299,-4.3316,-4.3361,-4.3328,-4.3371,-4.3351,-4.3393,-4.3383,-4.3453,-4.3462,-4.3462,-4.3459,-4.3466,-4.3466,-4.3481,-4.3473,-4.3448,-4.3447,-4.3446,-4.3445,0,-4.321,-4.3204,-4.3281,-4.3295,-4.33,-4.3353,-4.3365,-4.3407,-4.3405,-4.3462,-4.3475,-4.3471,-4.3518,-4.3509,-4.356,-4.3554,-4.3642,-4.3628,-4.3635,-4.3633,-4.3696,-4.3691,-4.39,-4.3927,-4.3735,-4.3737,-4.3739,0,-4.3302,-4.3352,-4.3372,-4.34,-4.3413,-4.3459,-4.3485,-4.3468,-4.3497,-4.3526,-4.3565,-4.3609,-4.3644,-4.3721,-4.3723,-4.3762,-4.375,-4.382,-4.3755,-4.3761,-4.3752,-4.375,-4.3756,-4.3833,-4.3836,-4.3837,-4.3839,0,-4.3465,-4.3459,-4.3499,-4.3538,-4.357,-4.36,-4.3626,-4.3651,-4.3636,-4.367,-4.3719,-4.3746,-4.3799,-4.3844,-4.3881,-4.389,-4.3863,-4.3859,-4.3876,-4.3884,-4.3887,-4.3888,-4.3672,-4.3855,-4.3853,-4.3852,-4.3851,-4.385,-4.3585,-4.3628,-4.365,-4.3695,-4.3713,-4.3739,-4.3779,-4.3783,-4.3823,-4.3866,-4.3853,-4.3909,-4.3929,-4.3976,-4.399,-4.4033,-4.4007,-4.4031,-4.4037,-4.4044,-4.4052,-4.3879,-4.404,-4.4039,-4.4039,-4.4038,-4.4038,0,-4.3747,-4.3759,-4.3801,-4.384,-4.3876,-4.3847,-4.3875,-4.3907,-4.3956,-4.3978,-4.4013,-4.407,-4.4113,-4.4119,-4.416,-4.4193,-4.4182,-4.4205,-4.4203,-4.4206,-4.4073,-4.4055,-4.4214,-4.4214,-4.4214,-4.4214,-4.4214,-4.4214,-4.3836,-4.3909,-4.3906,-4.3988,-4.3999,-4.4054,-4.4072,-4.4096,-4.4114,-4.4178,-4.4215,-4.4218,-4.4234,-4.4276,-4.4315,-4.4315,-4.4333,-4.4361,-4.4357,-4.4233,-4.4215,-4.4198,-4.4182,-4.4365,-4.4365,-4.4487,-4.4488,-4.4489]}]]